• In Portugal
  • List of Countries
  • For 7 days
  • Water Temperature
  • Satellite Maps
  • Weather Map
  • Weather Widgets
  • user-avatar
    Login

    Hourly Weather Francistown

    Today, 21 September, Thursday

    Time Temperature Precipitation Wind Pressure Humidity
    00:00 +23°C° 0 mm 7 mps 681 mmHg 48%
    01:00 +23°C° 0 mm 7 mps 681 mmHg 50%
    02:00 +22°C° 0 mm 7 mps 681 mmHg 52%
    03:00 +21°C° 0 mm 6 mps 681 mmHg 51%
    04:00 +21°C° 0 mm 6 mps 681 mmHg 51%
    05:00 +20°C° 0 mm 5 mps 681 mmHg 51%
    06:00 +21°C° 0 mm 5 mps 681 mmHg 50%
    07:00 +21°C° 0 mm 5 mps 682 mmHg 49%
    08:00 +22°C° 0 mm 5 mps 682 mmHg 48%
    09:00 +25°C° 0 mm 5 mps 682 mmHg 42%
    10:00 +27°C° 0 mm 5 mps 683 mmHg 36%
    11:00 +29°C° 0 mm 6 mps 683 mmHg 30%
    12:00 +32°C° 0 mm 6 mps 682 mmHg 27%
    13:00 +33°C° 0 mm 6 mps 681 mmHg 24%
    14:00 +34°C° 0 mm 6 mps 681 mmHg 21%
    15:00 +33°C° 0 mm 6 mps 680 mmHg 21%
    16:00 +33°C° 0 mm 6 mps 680 mmHg 20%
    17:00 +32°C° 0 mm 7 mps 679 mmHg 20%
    18:00 +30°C° 0 mm 6 mps 680 mmHg 22%
    19:00 +28°C° 0 mm 6 mps 680 mmHg 25%
    20:00 +26°C° 0 mm 5 mps 680 mmHg 28%
    21:00 +26°C° 0 mm 5 mps 680 mmHg 30%
    22:00 +25°C° 0 mm 5 mps 680 mmHg 31%
    23:00 +23°C° 0 mm 5 mps 681 mmHg 33%

    Tomorrow, 22 September, Friday

    Time Temperature Precipitation Wind Pressure Humidity
    00:00 +22°C° 0 mm 5 mps 680 mmHg 36%
    01:00 +21°C° 0 mm 4 mps 680 mmHg 39%
    02:00 +20°C° 0 mm 4 mps 679 mmHg 42%
    03:00 +19°C° 0 mm 3 mps 679 mmHg 45%
    04:00 +19°C° 0 mm 3 mps 679 mmHg 48%
    05:00 +18°C° 0 mm 3 mps 679 mmHg 51%
    06:00 +20°C° 0 mm 3 mps 679 mmHg 47%
    07:00 +21°C° 0 mm 4 mps 680 mmHg 44%
    08:00 +23°C° 0 mm 4 mps 681 mmHg 40%
    09:00 +26°C° 0 mm 4 mps 681 mmHg 34%
    10:00 +29°C° 0 mm 4 mps 681 mmHg 28%
    11:00 +33°C° 0 mm 4 mps 681 mmHg 21%
    12:00 +34°C° 0 mm 4 mps 680 mmHg 18%
    13:00 +36°C° 0 mm 4 mps 680 mmHg 15%
    14:00 +37°C° 0 mm 4 mps 679 mmHg 12%
    15:00 +37°C° 0 mm 4 mps 678 mmHg 11%
    16:00 +36°C° 0 mm 5 mps 678 mmHg 11%
    17:00 +36°C° 0 mm 5 mps 678 mmHg 10%
    18:00 +34°C° 0 mm 5 mps 678 mmHg 12%
    19:00 +32°C° 0 mm 5 mps 678 mmHg 14%
    20:00 +29°C° 0 mm 4 mps 678 mmHg 17%
    21:00 +28°C° 0 mm 4 mps 678 mmHg 18%
    22:00 +27°C° 0 mm 4 mps 679 mmHg 20%
    23:00 +26°C° 0 mm 4 mps 679 mmHg 22%

    Day after tomorrow, 23 September, Saturday

    Time Temperature Precipitation Wind Pressure Humidity
    00:00 +25°C° 0 mm 4 mps 679 mmHg 24%
    01:00 +23°C° 0 mm 4 mps 678 mmHg 25%
    02:00 +22°C° 0 mm 3 mps 678 mmHg 26%
    03:00 +22°C° 0 mm 3 mps 678 mmHg 28%
    04:00 +21°C° 0 mm 3 mps 678 mmHg 30%
    05:00 +20°C° 0 mm 2 mps 677 mmHg 31%
    06:00 +22°C° 0 mm 3 mps 678 mmHg 28%
    07:00 +25°C° 0 mm 3 mps 679 mmHg 26%
    08:00 +27°C° 0 mm 3 mps 680 mmHg 23%
    09:00 +30°C° 0 mm 3 mps 681 mmHg 18%
    10:00 +33°C° 0 mm 4 mps 681 mmHg 14%
    11:00 +36°C° 0 mm 4 mps 681 mmHg 10%
    12:00 +37°C° 0 mm 4 mps 680 mmHg 8%
    13:00 +38°C° 0 mm 4 mps 680 mmHg 7%
    14:00 +40°C° 0 mm 5 mps 679 mmHg 6%
    15:00 +39°C° 0 mm 5 mps 679 mmHg 6%
    16:00 +39°C° 0 mm 6 mps 678 mmHg 7%
    17:00 +38°C° 0 mm 7 mps 678 mmHg 8%
    18:00 +35°C° 0 mm 7 mps 679 mmHg 11%
    19:00 +33°C° 0 mm 7 mps 679 mmHg 13%
    20:00 +30°C° 0 mm 7 mps 680 mmHg 16%
    21:00 +28°C° 0 mm 8 mps 680 mmHg 27%
    22:00 +27°C° 0 mm 9 mps 680 mmHg 37%
    23:00 +24°C° 0 mm 9 mps 680 mmHg 48%

    24 September, Sunday

    Time Temperature Precipitation Wind Pressure Humidity
    00:00 +23°C° 0 mm 9 mps 680 mmHg 54%
    01:00 +21°C° 0 mm 9 mps 680 mmHg 61%
    02:00 +19°C° 0 mm 9 mps 679 mmHg 67%
    03:00 +18°C° 0 mm 8 mps 680 mmHg 68%
    04:00 +18°C° 0 mm 8 mps 680 mmHg 70%
    05:00 +17°C° 0 mm 8 mps 680 mmHg 71%
    06:00 +18°C° 0 mm 8 mps 681 mmHg 68%
    07:00 +18°C° 0 mm 8 mps 681 mmHg 66%
    08:00 +20°C° 0 mm 8 mps 682 mmHg 63%
    09:00 +21°C° 0 mm 8 mps 682 mmHg 58%
    10:00 +23°C° 0 mm 7 mps 682 mmHg 52%
    11:00 +24°C° 0 mm 7 mps 682 mmHg 47%
    12:00 +27°C° 0 mm 7 mps 682 mmHg 42%
    13:00 +28°C° 0 mm 7 mps 681 mmHg 37%
    14:00 +30°C° 0 mm 6 mps 680 mmHg 32%
    15:00 +29°C° 0 mm 6 mps 680 mmHg 33%
    16:00 +29°C° 0 mm 6 mps 679 mmHg 33%
    17:00 +29°C° 0 mm 6 mps 679 mmHg 34%
    18:00 +27°C° 0 mm 6 mps 679 mmHg 39%
    19:00 +24°C° 0 mm 6 mps 679 mmHg 44%
    20:00 +23°C° 0 mm 6 mps 680 mmHg 48%
    21:00 +22°C° 0 mm 5 mps 679 mmHg 52%
    22:00 +21°C° 0 mm 5 mps 679 mmHg 55%
    23:00 +20°C° 0 mm 5 mps 679 mmHg 59%

    25 September, Monday

    Time Temperature Precipitation Wind Pressure Humidity
    00:00 +19°C° 0 mm 5 mps 679 mmHg 63%
    01:00 +19°C° 0 mm 5 mps 678 mmHg 67%
    02:00 +17°C° 0 mm 5 mps 678 mmHg 71%
    03:00 +17°C° 0 mm 4 mps 678 mmHg 74%
    04:00 +17°C° 0 mm 4 mps 678 mmHg 78%
    05:00 +15°C° 0 mm 4 mps 678 mmHg 81%
    06:00 +18°C° 0 mm 4 mps 678 mmHg 75%
    07:00 +19°C° 0 mm 4 mps 679 mmHg 69%
    08:00 +20°C° 0 mm 3 mps 679 mmHg 63%
    09:00 +24°C° 0 mm 3 mps 679 mmHg 52%
    10:00 +27°C° 0 mm 3 mps 679 mmHg 41%
    11:00 +30°C° 0 mm 2 mps 679 mmHg 29%
    12:00 +32°C° 0 mm 2 mps 678 mmHg 25%
    13:00 +35°C° 0 mm 3 mps 677 mmHg 21%
    14:00 +36°C° 0 mm 3 mps 677 mmHg 16%
    15:00 +36°C° 0 mm 3 mps 676 mmHg 16%
    16:00 +36°C° 0 mm 3 mps 676 mmHg 15%
    17:00 +36°C° 0 mm 3 mps 675 mmHg 14%
    18:00 +34°C° 0 mm 3 mps 675 mmHg 17%
    19:00 +31°C° 0 mm 3 mps 675 mmHg 20%
    20:00 +29°C° 0 mm 3 mps 675 mmHg 23%
    21:00 +28°C° 0 mm 3 mps 675 mmHg 24%
    22:00 +27°C° 0 mm 3 mps 675 mmHg 25%
    23:00 +26°C° 0 mm 3 mps 675 mmHg 25%

    26 September, Tuesday

    Time Temperature Precipitation Wind Pressure Humidity
    00:00 +25°C° 0 mm 3 mps 675 mmHg 26%
    01:00 +24°C° 0 mm 3 mps 674 mmHg 26%
    02:00 +24°C° 0 mm 3 mps 674 mmHg 26%
    03:00 +22°C° 0 mm 3 mps 674 mmHg 26%
    04:00 +22°C° 0 mm 3 mps 674 mmHg 26%
    05:00 +21°C° 0 mm 3 mps 674 mmHg 27%
    06:00 +23°C° 0 mm 4 mps 674 mmHg 25%
    07:00 +27°C° 0 mm 6 mps 675 mmHg 24%
    08:00 +29°C° 0 mm 7 mps 676 mmHg 23%
    09:00 +32°C° 0 mm 7 mps 676 mmHg 18%
    10:00 +35°C° 0 mm 6 mps 676 mmHg 14%
    11:00 +38°C° 0 mm 6 mps 676 mmHg 9%
    12:00 +39°C° 0 mm 6 mps 675 mmHg 8%
    13:00 +40°C° 0 mm 5 mps 674 mmHg 7%
    14:00 +40°C° 0 mm 4 mps 674 mmHg 6%
    15:00 +40°C° 0 mm 4 mps 674 mmHg 7%
    16:00 +39°C° 0 mm 3 mps 673 mmHg 7%
    17:00 +38°C° 0 mm 2 mps 673 mmHg 7%
    18:00 +36°C° 0 mm 2 mps 673 mmHg 9%
    19:00 +34°C° 0 mm 2 mps 673 mmHg 10%
    20:00 +30°C° 0 mm 1 mps 673 mmHg 12%
    21:00 +30°C° 0 mm 2 mps 673 mmHg 13%
    22:00 +29°C° 0 mm 2 mps 673 mmHg 15%
    23:00 +28°C° 0 mm 3 mps 673 mmHg 16%
    Show more